sat.trackr.live / text

‹ back to catalog

STARLINK-2226

NORAD 48010 · 2021-024AK

PAYLOAD ACTIVE UNKNOWN

§ Identity

Operator
Country
US
Launch date
2021-03-24
Launch site
AFETR
Launch vehicle
Mass (kg)
RCS (m²)

Purposes: comms

External: N2YO · Heavens-Above · Gunter

§ Orbital elements

Epoch: 2026-05-24T12:51:43.483680Z

Period
94.01 min
Inclination
53.1614°
Eccentricity
0.0001364
Mean motion
15.31696252 rev/d
Perigee alt
469.8 km
Apogee alt
471.7 km
Semi-major
6,848.9 km
B*
1.4173e-4
RAAN
339.9114°
Arg perigee
85.2282°
Mean anomaly
274.8875°
Rev number
28,618

§ Raw data

STARLINK-22261 48010U 21024AK  26144.53591995  .00004035  00000+0  14173-3 0  99952 48010  53.1614 339.9114 0001364  85.2282 274.8875 15.31696252286182

JSON: /api/v1/satellites/48010 · /tle

For live sub-satellite position, see the globe view (requires WebGL).

§ Visibility from observer

Set your observer location to see the next 7 days of passes ≥ 10°. The values pass through the URL so the page stays shareable.

No JS? Fill the form by hand. The geolocation button needs JavaScript.